User: anonymous   Login
Location: ??
(34.9170°N, 135.5016°E)
Time: 02:53:55
(UTC+00:00)
Language:

Okean 1-7 Rocket - Orbit

View from above orbital plane
View from above orbital plane
View from above satellite
View from above satellite

Ground track
Ground track

The orbit data is extracted from the following two-line orbital elements,

1 23318U 94066B   21015.51802238  .00000061  00000-0  51881-5 0  9995
2 23318  82.5400  35.2019 0022115 274.8775  84.9913 14.78893134415742
Epoch (UTC): 15 January 2021 12:25:57
Eccentricity: 0.0022115
inclination: 82.5400°
perigee height: 617 km
apogee height: 648 km
right ascension of ascending node: 35.2019°
argument of perigee: 274.8775°
revolutions per day: 14.78893134
mean anomaly at epoch: 84.9913°
orbit number at epoch: 41574

The dashed part of the orbit path shows where the satellite is in the earth's shadow,  

DLR